TimeCDT,TemperatureF,Dew PointF,Humidity,Sea Level PressureIn,VisibilityMPH,Wind Direction,Wind SpeedMPH,Gust SpeedMPH,PrecipitationIn,Events,Conditions,WindDirDegrees,DateUTC
12:14 AM,73.4,59.0,61,30.00,10.0,South,11.5,-,N/A,,Scattered Clouds,170,2013-07-13 05:14:00
12:33 AM,73.4,59.0,61,29.99,10.0,SSE,13.8,19.6,N/A,,Clear,160,2013-07-13 05:33:00
12:54 AM,73.4,59.0,61,29.99,10.0,South,11.5,17.3,N/A,,Clear,170,2013-07-13 05:54:00
1:14 AM,73.4,59.0,61,29.98,10.0,South,12.7,17.3,N/A,,Clear,170,2013-07-13 06:14:00
1:34 AM,71.6,59.0,64,29.97,10.0,SSE,12.7,18.4,N/A,,Clear,160,2013-07-13 06:34:00
1:54 AM,71.6,57.2,60,29.97,10.0,SSE,13.8,18.4,N/A,,Clear,160,2013-07-13 06:54:00
2:14 AM,71.6,59.0,64,29.98,10.0,SSE,10.4,-,N/A,,Clear,160,2013-07-13 07:14:00
2:34 AM,71.6,59.0,64,30.00,10.0,SSE,10.4,-,N/A,,Clear,160,2013-07-13 07:34:00
2:54 AM,71.6,59.0,64,29.96,10.0,SSE,16.1,20.7,N/A,,Clear,150,2013-07-13 07:54:00
3:14 AM,71.6,59.0,64,29.96,10.0,SSE,15.0,18.4,N/A,,Clear,160,2013-07-13 08:14:00
3:34 AM,71.6,57.2,60,29.97,10.0,South,10.4,17.3,N/A,Thunderstorm,Thunderstorm,170,2013-07-13 08:34:00
3:54 AM,71.6,57.2,60,29.99,10.0,SW,5.8,-,N/A,Thunderstorm,Mostly Cloudy,230,2013-07-13 08:54:00
4:14 AM,71.6,59.0,64,30.04,10.0,WNW,4.6,-,N/A,Rain-Thunderstorm,Light Thunderstorms and Rain,300,2013-07-13 09:14:00
4:34 AM,69.8,60.8,73,29.99,10.0,SSE,9.2,-,N/A,Rain-Thunderstorm,Light Thunderstorms and Rain,150,2013-07-13 09:34:00
4:54 AM,69.8,62.6,78,29.99,10.0,SSE,5.8,-,N/A,Rain-Thunderstorm,Thunderstorms and Rain,150,2013-07-13 09:54:00
5:14 AM,66.2,62.6,88,30.02,7.0,Calm,Calm,-,0.04,Rain-Thunderstorm,Thunderstorms and Rain,0,2013-07-13 10:14:00
5:34 AM,66.2,64.4,94,30.02,5.0,South,4.6,-,0.13,Rain-Thunderstorm,Heavy Thunderstorms and Rain,170,2013-07-13 10:34:00
5:54 AM,64.4,64.4,100,30.01,3.0,NE,9.2,-,0.54,Rain-Thunderstorm,Heavy Thunderstorms and Rain,50,2013-07-13 10:54:00
6:14 AM,62.6,62.6,100,30.10,3.0,North,17.3,23.0,0.24,Rain-Thunderstorm,Heavy Thunderstorms and Rain,360,2013-07-13 11:14:00
6:34 AM,62.6,62.6,100,30.07,1.5,East,15.0,-,1.03,Rain-Thunderstorm,Heavy Thunderstorms and Rain,100,2013-07-13 11:34:00
6:54 AM,62.6,62.6,100,30.04,3.0,ESE,10.4,15.0,1.38,Rain-Thunderstorm,Heavy Thunderstorms and Rain,110,2013-07-13 11:54:00
7:14 AM,62.6,62.6,100,30.08,2.0,East,8.1,12.7,0.53,Rain-Thunderstorm,Heavy Thunderstorms and Rain,100,2013-07-13 12:14:00
7:34 AM,62.6,62.6,100,30.10,2.5,NE,16.1,23.0,1.15,Rain-Thunderstorm,Heavy Thunderstorms and Rain,50,2013-07-13 12:34:00
7:54 AM,62.6,62.6,100,30.08,5.0,ESE,10.4,16.1,1.41,Rain-Thunderstorm,Heavy Thunderstorms and Rain,110,2013-07-13 12:54:00
8:14 AM,62.6,62.6,100,30.09,4.0,ENE,10.4,-,0.31,Rain-Thunderstorm,Thunderstorms and Rain,70,2013-07-13 13:14:00
8:34 AM,62.6,62.6,100,30.11,10.0,ESE,9.2,-,0.45,Rain,Heavy Rain,120,2013-07-13 13:34:00
8:54 AM,62.6,62.6,100,30.12,10.0,SE,12.7,18.4,0.49,Rain-Thunderstorm,Thunderstorms and Rain,130,2013-07-13 13:54:00
9:14 AM,62.6,62.6,100,30.11,10.0,ESE,17.3,23.0,0.07,Rain-Thunderstorm,Light Thunderstorms and Rain,120,2013-07-13 14:14:00
9:34 AM,62.6,62.6,100,30.07,10.0,SSE,18.4,23.0,0.11,Rain,Light Rain,150,2013-07-13 14:34:00
9:54 AM,62.6,62.6,100,30.05,10.0,South,15.0,23.0,0.11,Thunderstorm,Thunderstorm,170,2013-07-13 14:54:00
10:14 AM,62.6,62.6,100,30.02,10.0,South,12.7,20.7,N/A,,Clear,170,2013-07-13 15:14:00
10:34 AM,64.4,64.4,100,29.99,10.0,SSE,15.0,20.7,N/A,,Clear,160,2013-07-13 15:34:00
10:54 AM,64.4,64.4,100,30.00,10.0,South,13.8,20.7,N/A,,Clear,190,2013-07-13 15:54:00
11:14 AM,64.4,64.4,100,29.99,10.0,South,13.8,20.7,N/A,Thunderstorm,Clear,170,2013-07-13 16:14:00
11:34 AM,66.2,66.2,100,29.99,10.0,South,12.7,19.6,N/A,,Clear,180,2013-07-13 16:34:00
11:54 AM,66.2,66.2,100,29.97,10.0,South,11.5,21.9,N/A,,Clear,170,2013-07-13 16:54:00
12:14 PM,69.8,68.0,94,29.98,10.0,South,10.4,17.3,N/A,,Clear,180,2013-07-13 17:14:00
12:34 PM,69.8,68.0,94,30.01,10.0,South,16.1,23.0,N/A,,Clear,180,2013-07-13 17:34:00
12:54 PM,71.6,68.0,88,30.03,10.0,SSW,6.9,-,N/A,,Clear,200,2013-07-13 17:54:00
1:14 PM,73.4,69.8,88,30.04,10.0,South,4.6,-,N/A,,Clear,170,2013-07-13 18:14:00
1:34 PM,73.4,68.0,83,30.05,10.0,SE,5.8,-,N/A,,Mostly Cloudy,130,2013-07-13 18:34:00
1:54 PM,73.4,68.0,83,30.05,10.0,SE,6.9,-,N/A,,Mostly Cloudy,130,2013-07-13 18:54:00
2:14 PM,73.4,68.0,83,30.04,10.0,ESE,6.9,-,N/A,,Mostly Cloudy,110,2013-07-13 19:14:00
2:34 PM,75.2,69.8,83,30.04,10.0,ESE,10.4,-,N/A,,Scattered Clouds,120,2013-07-13 19:34:00
2:54 PM,75.2,68.0,78,30.04,10.0,SE,13.8,-,N/A,,Clear,140,2013-07-13 19:54:00
3:14 PM,73.4,66.2,78,30.04,10.0,SE,16.1,21.9,N/A,,Clear,140,2013-07-13 20:14:00
3:34 PM,73.4,66.2,78,30.04,10.0,SE,11.5,-,N/A,,Clear,140,2013-07-13 20:34:00
3:54 PM,73.4,64.4,73,30.04,10.0,SE,12.7,19.6,N/A,,Clear,140,2013-07-13 20:54:00
4:14 PM,73.4,64.4,73,30.04,10.0,SE,16.1,19.6,N/A,,Clear,140,2013-07-13 21:14:00
4:34 PM,73.4,64.4,73,30.04,10.0,SE,11.5,18.4,N/A,,Clear,140,2013-07-13 21:34:00
4:54 PM,75.2,64.4,69,30.04,10.0,SE,11.5,17.3,N/A,,Clear,140,2013-07-13 21:54:00
5:14 PM,75.2,62.6,65,30.04,10.0,SE,16.1,21.9,N/A,,Clear,140,2013-07-13 22:14:00
5:34 PM,75.2,62.6,65,30.04,10.0,SSE,11.5,18.4,N/A,,Clear,150,2013-07-13 22:34:00
5:54 PM,75.2,62.6,65,30.04,10.0,SE,15.0,20.7,N/A,,Clear,140,2013-07-13 22:54:00
6:14 PM,75.2,62.6,65,30.04,10.0,SE,13.8,-,N/A,,Clear,140,2013-07-13 23:14:00
6:34 PM,73.4,62.6,69,30.04,10.0,ESE,12.7,-,N/A,,Clear,120,2013-07-13 23:34:00
6:54 PM,73.4,62.6,69,30.04,10.0,SE,11.5,16.1,N/A,,Clear,140,2013-07-13 23:54:00
7:14 PM,73.4,59.0,61,30.04,10.0,SE,8.1,-,N/A,,Clear,140,2013-07-14 00:14:00
7:34 PM,73.4,59.0,61,30.05,10.0,SE,9.2,-,N/A,,Clear,130,2013-07-14 00:34:00
7:54 PM,71.6,60.8,69,30.04,10.0,SE,8.1,-,N/A,,Clear,140,2013-07-14 00:54:00
8:14 PM,71.6,60.8,69,30.04,10.0,SE,4.6,-,N/A,,Clear,140,2013-07-14 01:14:00
8:34 PM,71.6,59.0,64,30.04,10.0,SE,8.1,-,N/A,,Clear,140,2013-07-14 01:34:00
8:54 PM,69.8,60.8,73,30.04,10.0,SE,9.2,-,N/A,,Clear,140,2013-07-14 01:54:00
9:14 PM,69.8,60.8,73,30.05,10.0,SE,10.4,17.3,N/A,,Clear,140,2013-07-14 02:14:00
9:34 PM,69.8,60.8,73,30.05,10.0,SSE,11.5,16.1,N/A,,Clear,150,2013-07-14 02:34:00
9:54 PM,69.8,60.8,73,30.05,10.0,SE,10.4,-,N/A,,Clear,140,2013-07-14 02:54:00
10:14 PM,69.8,60.8,73,30.05,10.0,SE,9.2,-,N/A,,Clear,140,2013-07-14 03:14:00
10:34 PM,69.8,60.8,73,30.06,10.0,SSE,10.4,16.1,N/A,,Clear,150,2013-07-14 03:34:00
10:54 PM,69.8,62.6,78,30.07,10.0,SE,9.2,16.1,N/A,,Clear,140,2013-07-14 03:54:00
11:14 PM,68.0,62.6,83,30.08,10.0,SSE,8.1,-,N/A,,Clear,150,2013-07-14 04:14:00
11:34 PM,68.0,62.6,83,30.09,10.0,SSE,8.1,-,N/A,,Clear,150,2013-07-14 04:34:00
11:54 PM,68.0,62.6,83,30.09,10.0,SSE,8.1,-,N/A,,Clear,150,2013-07-14 04:54:00